Salida, CO

11:45 PM MDT on August 20, 2017 (GMT -0600)
Salida

Weather History for KANK - June, 2014

Change the Weather History Date:

Monday, June 30, 2014

  Actual Average (KGUC) Record (KGUC)
Temperature  
Mean Temperature 74 °F -  
Max Temperature 90 °F 76 °F 87 °F (1998)
Min Temperature 57 °F 41 °F 37 °F (1997)
Cooling Degree Days 8    
Growing Degree Days 24 (Base 50)    
Moisture  
Dew Point 29 °F    
Average Humidity 24    
Maximum Humidity 43    
Minimum Humidity 7    
Precipitation  
Precipitation 0.00 in - - ()
Sea Level Pressure  
Sea Level Pressure 30.23 in    
Wind  
Wind Speed 9 mph (West)    
Max Wind Speed 24 mph    
Max Gust Speed 33 mph    
Visibility 10 miles    
Events      
Averages and records for this station are not official NWS values.
T = Trace of Precipitation, MM = Missing Value Source: NWS Daily Summary

Daily Weather History Graph

Daily Weather History Graph

Search for Another Location

Airport or City:

Trip Planner

Search our weather history database for the weather conditions in past years. The results will help you decide how hot, cold, wet, or windy it might be!

Date:

Astronomy

Jun. 30, 2014 Rise Set
Actual Time 5:43 AM MDT 8:32 PM MDT
Civil Twilight 5:11 AM MDT 9:04 PM MDT
Nautical Twilight 4:31 AM MDT 9:43 PM MDT
Astronomical Twilight 3:46 AM MDT 10:29 PM MDT
Moon 8:56 AM MDT (6/30) 10:29 PM MDT (6/30)
Length of Visible Light 15h 52m
Length of Day
14h 49m
Waxing Crescent, 10% of the Moon is Illuminated
Jun 30
Waxing Crescent
Jul 5
First Quarter
Jul 12
Full
Jul 18
Last Quarter
Jul 26
New

Hourly Weather History & Observations

Time (MDT) Temp. Dew Point Humidity Pressure Visibility Wind Dir Wind Speed Gust Speed Precip Events Conditions
12:15 AM 67.1 °F 27.1 °F 22% 30.25 in 10.0 mi WSW 10.4 mph - N/A   Clear
12:35 AM 67.5 °F 26.6 °F 22% 30.25 in 10.0 mi West 4.6 mph - N/A   Clear
12:55 AM 63.5 °F 27.0 °F 25% 30.25 in 10.0 mi West 3.5 mph - N/A   Clear
1:15 AM 65.1 °F 25.5 °F 22% 30.25 in 10.0 mi Calm Calm - N/A   Clear
1:35 AM 62.4 °F 27.0 °F 26% 30.25 in 10.0 mi Calm Calm - N/A   Clear
1:55 AM 60.1 °F 26.6 °F 28% 30.24 in 10.0 mi Calm Calm - N/A   Clear
2:15 AM 62.1 °F 26.1 °F 25% 30.24 in 10.0 mi West 3.5 mph - N/A   Clear
2:35 AM 61.5 °F 26.2 °F 26% 30.24 in 10.0 mi Calm Calm - N/A   Clear
2:55 AM 60.8 °F 26.1 °F 27% 30.24 in 10.0 mi Calm Calm - N/A   Clear
3:15 AM 62.6 °F 25.7 °F 25% 30.24 in 10.0 mi NW 4.6 mph - N/A   Clear
3:35 AM 61.7 °F 26.4 °F 26% 30.24 in 10.0 mi WNW 3.5 mph - N/A   Clear
3:55 AM 62.1 °F 25.7 °F 25% 30.24 in 10.0 mi WNW 9.2 mph - N/A   Clear
4:15 AM 60.6 °F 26.6 °F 27% 30.25 in 10.0 mi NW 10.4 mph - N/A   Clear
4:35 AM 61.2 °F 25.7 °F 26% 30.25 in 10.0 mi WNW 9.2 mph - N/A   Clear
4:55 AM 61.5 °F 25.7 °F 26% 30.25 in 10.0 mi NW 10.4 mph - N/A   Clear
5:15 AM 60.8 °F 26.2 °F 27% 30.25 in 10.0 mi NW 9.2 mph - N/A   Clear
5:35 AM 60.1 °F 26.4 °F 28% 30.25 in 10.0 mi NNW 4.6 mph - N/A   Clear
5:55 AM 58.1 °F 26.6 °F 30% 30.26 in 10.0 mi West 5.8 mph - N/A   Clear
6:15 AM 57.9 °F 26.6 °F 30% 30.26 in 10.0 mi WNW 3.5 mph - N/A   Clear
6:35 AM 58.1 °F 26.6 °F 30% 30.25 in 10.0 mi Calm Calm - N/A   Clear
6:55 AM 57.4 °F 28.4 °F 33% 30.26 in 10.0 mi Calm Calm - N/A   Clear
7:15 AM 59.5 °F 29.5 °F 32% 30.26 in 10.0 mi Calm Calm - N/A   Clear
7:35 AM 59.9 °F 29.3 °F 31% 30.26 in 10.0 mi Calm Calm - N/A   Clear
7:55 AM 61.3 °F 27.3 °F 27% 30.25 in 10.0 mi NNW 3.5 mph - N/A   Clear
8:15 AM 64.6 °F 28.0 °F 25% 30.25 in 10.0 mi NNE 4.6 mph - N/A   Clear
8:35 AM 66.6 °F 28.4 °F 24% 30.25 in 10.0 mi Calm Calm - N/A   Clear
8:55 AM 70.5 °F 31.1 °F 23% 30.25 in 10.0 mi SE 3.5 mph - N/A   Clear
9:15 AM 76.3 °F 32.5 °F 20% 30.24 in 10.0 mi SE 5.8 mph - N/A   Clear
9:35 AM 81.3 °F 26.6 °F 13% 30.23 in 10.0 mi SSW 15.0 mph 23.0 mph N/A   Clear
9:55 AM 82.6 °F 26.6 °F 13% 30.23 in 10.0 mi South 13.8 mph 21.9 mph N/A   Clear
10:15 AM - - N/A% 30.23 in 10.0 mi WSW 16.1 mph 23.0 mph N/A   Clear
10:35 AM - - N/A% 30.23 in 10.0 mi SW 17.3 mph 21.9 mph N/A   Clear
10:55 AM - - N/A% 30.23 in 10.0 mi WSW 18.4 mph 24.2 mph N/A   Clear
11:15 AM - - N/A% 30.23 in 10.0 mi West 17.3 mph 21.9 mph N/A   Clear
11:35 AM - - N/A% 30.23 in 10.0 mi WSW 20.7 mph 26.5 mph N/A   Clear
11:55 AM - - N/A% 30.23 in 10.0 mi SW 19.6 mph 26.5 mph N/A   Clear
12:15 PM - - N/A% 30.23 in 10.0 mi SW 21.9 mph 31.1 mph N/A   Clear
12:35 PM 89.2 °F 26.1 °F 10% 30.23 in 10.0 mi WSW 21.9 mph 31.1 mph N/A   Clear
12:55 PM - - N/A% 30.23 in 10.0 mi WSW 21.9 mph 28.8 mph N/A   Scattered Clouds
1:15 PM 89.8 °F 24.4 °F 9% 30.23 in 10.0 mi WSW 21.9 mph 31.1 mph N/A   Clear
1:35 PM - - N/A% 30.21 in 10.0 mi WSW 24.2 mph 29.9 mph N/A   Scattered Clouds
1:55 PM 89.2 °F 26.6 °F 10% 30.21 in 10.0 mi West 17.3 mph 29.9 mph N/A   Scattered Clouds
2:15 PM 89.4 °F 23.9 °F 9% 30.21 in 10.0 mi West 21.9 mph 31.1 mph N/A   Scattered Clouds
2:35 PM - - N/A% 30.20 in 10.0 mi West 13.8 mph 29.9 mph N/A   Clear
2:55 PM - - N/A% 30.19 in 10.0 mi WNW 17.3 mph 26.5 mph N/A   Clear
3:15 PM 90.1 °F 21.0 °F 8% 30.19 in 10.0 mi West 23.0 mph 33.4 mph N/A   Clear
3:35 PM 89.6 °F 18.9 °F 7% 30.19 in 10.0 mi WNW 20.7 mph 27.6 mph N/A   Clear
3:55 PM - - N/A% 30.19 in 10.0 mi WSW 21.9 mph 27.6 mph N/A   Clear
4:15 PM - - N/A% 30.18 in 10.0 mi West 15.0 mph 31.1 mph N/A   Clear
4:35 PM 89.6 °F 18.3 °F 7% 30.18 in 10.0 mi West 17.3 mph 29.9 mph N/A   Clear
4:55 PM - - N/A% 30.19 in 10.0 mi WNW 18.4 mph 26.5 mph N/A   Clear
5:15 PM 89.8 °F 16.2 °F 7% 30.19 in 10.0 mi WNW 17.3 mph 26.5 mph N/A   Clear
5:35 PM - - N/A% 30.19 in 10.0 mi West 13.8 mph 23.0 mph N/A   Clear
5:55 PM - - N/A% 30.19 in 10.0 mi West 11.5 mph 20.7 mph N/A   Clear
6:15 PM - - N/A% 30.19 in 10.0 mi West 8.1 mph 21.9 mph N/A   Clear
6:35 PM - - N/A% 30.19 in 10.0 mi West 15.0 mph 23.0 mph N/A   Clear
6:55 PM - - N/A% 30.19 in 10.0 mi West 13.8 mph 18.4 mph N/A   Clear
7:15 PM - - N/A% 30.19 in 10.0 mi West 12.7 mph 19.6 mph N/A   Clear
7:35 PM - - N/A% 30.20 in 10.0 mi West 11.5 mph - N/A   Clear
7:55 PM - - N/A% 30.20 in 10.0 mi West 10.4 mph 17.3 mph N/A   Clear
8:15 PM - - N/A% 30.20 in 10.0 mi WSW 10.4 mph - N/A   Clear
8:35 PM - - N/A% 30.22 in 10.0 mi WSW 8.1 mph - N/A   Clear
9:15 PM 74.1 °F 40.6 °F 30% 30.24 in 10.0 mi SE 16.1 mph 27.6 mph N/A   Clear
9:35 PM 72.7 °F 42.1 °F 33% 30.25 in 10.0 mi ESE 13.8 mph 29.9 mph N/A   Clear
9:55 PM 71.6 °F 43.0 °F 36% 30.25 in 10.0 mi ESE 17.3 mph 29.9 mph N/A   Clear
10:15 PM 70.7 °F 42.8 °F 36% 30.25 in 10.0 mi SE 15.0 mph 24.2 mph N/A   Clear
10:35 PM 70.0 °F 42.6 °F 37% 30.25 in 10.0 mi ESE 15.0 mph 23.0 mph N/A   Clear
11:15 PM 68.4 °F 43.2 °F 40% 30.25 in 10.0 mi ESE 15.0 mph 24.2 mph N/A   Clear
11:35 PM 68.0 °F 43.7 °F 41% 30.25 in 10.0 mi SE 12.7 mph 18.4 mph N/A   Clear
11:55 PM 67.5 °F 44.2 °F 43% 30.27 in 10.0 mi ESE 15.0 mph 23.0 mph N/A   Clear